Weather History for Wenatchee, WA

Change the Weather History Date:

Wednesday, April 25, 2012

  Actual Average Record
Temperature  
Mean Temperature 58 °F 48 °F  
Max Temperature 70 °F 60 °F 82 °F (1977)
Min Temperature 45 °F 36 °F 32 °F (2008)
Degree Days  
Heating Degree Days 7 17  
Month to date heating degree days 449 489  
Since 1 July heating degree days 6383 6497  
Cooling Degree Days 0 0  
Month to date cooling degree days 0 0  
Year to date cooling degree days 0 0  
Growing Degree Days 10 (Base 50)    
Moisture  
Dew Point 46 °F    
Average Humidity 72    
Maximum Humidity 96    
Minimum Humidity 38    
Precipitation  
Precipitation 0.20 in 0.04 in 0.65 in (1960)
Month to date precipitation 1.67 1.06  
Year to date precipitation 8.73 6.10  
Snow  
Snow 0.00 in 0.00 in - ()
Month to date snowfall 1.4 1.8  
Since 1 July snowfall 36.3 53.5  
Snow Depth 0.00 in    
Sea Level Pressure  
Sea Level Pressure 29.72 in    
Wind  
Wind Speed 3 mph (NNW)    
Max Wind Speed 12 mph    
Max Gust Speed 22 mph    
Visibility 9 miles    
Events Rain    
T = Trace of Precipitation, MM = Missing Value Source: NWS Daily Summary

Daily Weather History Graph

Daily Weather History Graph

Search for Another Location

Airport:

Trip Planner

Search our weather history database for the weather conditions in past years. The results will help you decide how hot, cold, wet, or windy it might be!

Date:

Astronomy

Apr. 25, 2012 Rise Set
Actual Time 5:53 AM PDT 8:04 PM PDT
Civil Twilight 5:19 AM PDT 8:38 PM PDT
Nautical Twilight 4:38 AM PDT 9:20 PM PDT
Astronomical Twilight 3:51 AM PDT 10:07 PM PDT
Moon 8:32 AM PDT (4/25) No Moon Set
Length of Visible Light 15h 18m
Length of Day
14h 11m
Waxing Crescent, 17% of the Moon is Illuminated
Apr 25
Waxing Crescent
Apr 29
First Quarter
May 5
Full
May 12
Last Quarter
May 20
New

Hourly Weather History & Observations

Time (PDT) Temp. Dew Point Humidity Pressure Visibility Wind Dir Wind Speed Gust Speed Precip Events Conditions
12:55 AM 53.1 °F 39.9 °F 61% 29.79 in 10.0 mi Calm Calm - N/A   Clear
1:55 AM 48.9 °F 41.0 °F 74% 29.79 in 10.0 mi Calm Calm - N/A   Partly Cloudy
2:55 AM 48.9 °F 41.0 °F 74% 29.80 in 10.0 mi East 4.6 mph - N/A   Scattered Clouds
3:55 AM 48.9 °F 41.0 °F 74% 29.80 in 10.0 mi NNE 4.6 mph - N/A   Mostly Cloudy
4:55 AM 48.9 °F 41.0 °F 74% 29.80 in 10.0 mi Calm Calm - N/A   Overcast
5:55 AM 48.0 °F 41.0 °F 77% 29.81 in 10.0 mi Calm Calm - N/A   Mostly Cloudy
6:55 AM 48.9 °F 42.1 °F 77% 29.81 in 10.0 mi Calm Calm - N/A   Partly Cloudy
7:55 AM 50.0 °F 43.0 °F 77% 29.82 in 10.0 mi Calm Calm - N/A   Partly Cloudy
8:55 AM 55.0 °F 43.0 °F 64% 29.81 in 10.0 mi Calm Calm - N/A   Scattered Clouds
9:55 AM 57.9 °F 44.1 °F 60% 29.80 in 10.0 mi Calm Calm - N/A   Clear
10:55 AM 61.0 °F 44.1 °F 54% 29.79 in 10.0 mi SE 5.8 mph - N/A   Mostly Cloudy
12:55 PM 68.0 °F 45.0 °F 43% 29.72 in 10.0 mi SE 10.4 mph - N/A   Scattered Clouds
2:55 PM 71.1 °F 44.1 °F 38% 29.66 in 10.0 mi ESE 11.5 mph 19.6 mph N/A   Mostly Cloudy
3:55 PM 70.0 °F 45.0 °F 41% 29.62 in 10.0 mi East 8.1 mph - 0.00 in   Overcast
4:55 PM 57.9 °F 53.1 °F 84% 29.65 in 7.0 mi NW 10.4 mph - 0.02 in Rain Light Rain
5:16 PM 57.2 °F 51.8 °F 82% 29.70 in 2.0 mi WNW 8.1 mph 21.9 mph 0.10 in Rain Rain
5:25 PM 57.2 °F 51.8 °F 82% 29.69 in 4.0 mi NW 10.4 mph - 0.12 in Rain Rain
5:55 PM 57.0 °F 50.0 °F 77% 29.67 in 10.0 mi NNW 6.9 mph - 0.18 in   Overcast
6:55 PM 57.0 °F 52.0 °F 83% 29.65 in 10.0 mi SW 6.9 mph - 0.00 in   Overcast
7:55 PM 57.0 °F 51.1 °F 81% 29.64 in 10.0 mi West 6.9 mph - N/A   Overcast
8:55 PM 55.9 °F 50.0 °F 80% 29.63 in 9.0 mi WNW 4.6 mph - 0.02 in Rain Light Rain
9:55 PM 54.0 °F 52.0 °F 93% 29.63 in 3.0 mi NNE 6.9 mph - 0.10 in Rain Heavy Rain
10:55 PM 53.1 °F 52.0 °F 96% 29.61 in 10.0 mi SW 3.5 mph - 0.04 in   Overcast
11:55 PM 54.0 °F 52.0 °F 93% 29.60 in 10.0 mi Calm Calm - N/A   Mostly Cloudy